{"data":{"norad_id":49263,"epoch":"2026-05-25T00:07:17.546016Z","epoch_age_seconds":77694,"freshness":"FRESH","line1":"1 49263U 21088D   26145.00506419  .00257094  00000+0  12536-2 0  9991","line2":"2 49263  97.4190 242.2250 0003679 262.5615  97.5236 15.81668260258870","mean_motion":15.8166826,"eccentricity":0.0003679,"inclination_deg":97.419,"raan_deg":242.225,"arg_perigee_deg":262.5615,"mean_anomaly_deg":97.5236,"bstar":0.0012536,"rev_number":25887,"period_min":91.043111657308,"perigee_km":323.25622037174,"apogee_km":328.18892024357,"semimajor_km":6703.8595703077,"source":"CELESTRAK","updated_at":"2026-05-25T13:37:57.138190Z"}}